Regional Weather Roundup
Issued by NWS

Home | Current Version | Previous Version | Graphics & Text | Print | Product List | Glossary On
Versions: 1 2 3 4 5 6 7 8 9 10 11 12 13 14 15 16 17 18 19 20 21 22 23 24 25 26 27 28 29 30 31 32 33 34 35 36 37 38 39 40 41 42 43 44 45 46 47 48 49 50
920
ASUS45 KSLC 041910
RWRUT

UTAH REGIONAL WEATHER ROUNDUP
NATIONAL WEATHER SERVICE SALT LAKE CITY UT
100 PM MDT WED MAY 04 2016

UTZ001>011-023>025-042000-

NORTHERN UTAH

CITY           SKY/WX    TMP DP  RH WIND       PRES   REMARKS
BRIGHAM CITY   SUNNY     73  32  22 SE3       30.12F
HILL AFB       MOSUNNY   74  32  21 SW16G26   30.12F
LOGAN          SUNNY     70  44  39 N3        30.12F
OGDEN          MOSUNNY   76  30  18 S14G24    30.11F
PROVO AIRPORT  PTSUNNY   73  34  23 VRB6      30.13F
SALT LAKE CITY PTSUNNY   78  28  16 S15G25    30.09F
VERNAL         SUNNY     69  32  25 VRB5      30.21F
WENDOVER       SUNNY     66  39  37 E8        30.10F
HEBER CITY     SUNNY     73  30  20 SW18G25   30.14F

$$

UTZ012>022-026-027-042000-

SOUTHERN/CENTRAL UTAH

CITY           SKY/WX    TMP DP  RH WIND       PRES   REMARKS
BLANDING       SUNNY     70  31  23 S13       30.34F
BRYCE CANYON   SUNNY     64  28  25 S18G32    30.28S
CEDAR CITY     SUNNY     74  32  21 S15G23    30.10F
DELTA          MOSUNNY   73  32  21 S6        30.11F
HANKSVILLE     SUNNY     73  30  20 SE3       30.18F
MILFORD        MOSUNNY   76  32  20 S10       30.08F
MOAB/CYNLANDS  SUNNY     77  30  17 S8G17     30.15F
PRICE          SUNNY     69  27  20 S7G16     30.23F
ST GEORGE      CLEAR     82  37  20 NW5       29.99F

$$

REGIONAL REPORTS     COLORADO/ARIZONA

CITY           SKY/WX    TMP DP  RH WIND       PRES   REMARKS
CRAIG, CO      SUNNY     70  27  20 W10G18    30.24F
GRAND JUNCTION SUNNY     72  30  21 SW6       30.19F
RIFLE          SUNNY     72  26  18 VRB5      30.21F
MONTROSE       SUNNY     73  25  16 N8        30.24F
CORTEZ         SUNNY     73  25  16 S15G21    30.27F
PAGE, AZ       SUNNY     75  34  22 NE7       30.12F
GRAND CANYON   SUNNY     72  24  16 SW10G24   30.22F
KINGMAN        SUNNY     85  26  11 S9G18     29.99F
FLAGSTAFF      SUNNY     68  27  21 SW12G25   30.24F

$$

REGIONAL REPORTS    NEVADA/IDAHO/WYOMING

CITY           SKY/WX    TMP DP  RH WIND       PRES   REMARKS
LAS VEGAS, NV  MOSUNNY   84  34  16 VRB3      29.89F
ELY            PTSUNNY   67  29  24 S15G23    30.12F
ELKO           PTSUNNY   72  33  24 S14       30.05F
POCATELLO, ID  MOSUNNY   76  38  25 VRB3      30.09F
BURLEY         SUNNY     75  36  24 E6        30.04F
EVANSTON, WY   SUNNY     67  25  20 S12G32    30.24F
ROCK SPRINGS   SUNNY     67  24  19 VRB7      30.24F
KEMMERER         N/A     66  19  16 S5        30.26F

$$




USA.gov is the U.S. government's official web portal to all federal, state and local government web resources and services.